Zurück zum Katalog

STARLINK-37188

AktivKommunikationSSO
NORAD 68404·PAYLOAD·🇺🇸 United States

Gestartet Mar 26, 2026 von Vandenberg Space Force Base

Loading…

Nächste Überflüge (nächste 24 Stunden)

TLE

AktuellSource: CelesTrak SupGP

Epoche: Sep 14, 2026, 21:43 UTC

1 68404C 26063AA  26257.90534722  .00008041  00000+0  24950-3 0  2575
2 68404  97.2857  38.9205 0001125  93.4974 349.3666 15.33447856    18

Verfolge STARLINK-37188 in Echtzeit mit AllMySat

Download on the App Store